TVF86MZ LFPO-GMTT

Flight info

Callsign TVF86MZ
Flight time 2h 21m
Altitude 37000
Route AGOPA DCT ARKIP DCT ARMAL DCT ARTAX DCT BEBIX DCT LMG DCT UVELI DCT OSMOB DCT VAVIX DCT NETUK N857 SVL N10 LINTO DCT NOLRO
Aircraft B738/M-SDE2E3FGHIRWXY/LB1

Departure

Time 2026-05-05 16:26
Airport Paris-Orly Airport (LFPO)

Arrival

Time 2026-05-05 18:47
Airport Tangier Ibn Battuta Airport (GMTT)
Time Latitude Longitude Altitude Speed Heading
2026-05-05 16:04 48.72967 2.35677 294 ft 0 kts 125°
2026-05-05 16:19 48.72972 2.35665 299 ft 6 kts 124°
2026-05-05 16:19 48.72995 2.35615 301 ft 6 kts 124°
2026-05-05 16:19 48.73028 2.35584 300 ft 0 kts 231°
2026-05-05 16:20 48.73023 2.35576 300 ft 9 kts 229°
2026-05-05 16:21 48.72890 2.35289 298 ft 22 kts 262°
2026-05-05 16:22 48.72826 2.34620 294 ft 21 kts 261°
2026-05-05 16:22 48.72771 2.34115 300 ft 26 kts 242°
2026-05-05 16:23 48.72480 2.33952 295 ft 24 kts 254°
2026-05-05 16:23 48.72435 2.33705 296 ft 27 kts 242°
2026-05-05 16:23 48.72264 2.33222 297 ft 25 kts 241°
2026-05-05 16:24 48.72180 2.32980 296 ft 26 kts 241°
2026-05-05 16:24 48.72088 2.32725 298 ft 27 kts 242°
2026-05-05 16:24 48.71916 2.32232 298 ft 28 kts 242°
2026-05-05 16:25 48.71827 2.31982 299 ft 26 kts 248°
2026-05-05 16:25 48.72039 2.31834 293 ft 48 kts 52°
2026-05-05 16:25 48.72342 2.32660 297 ft 127 kts 62°
2026-05-05 16:26 48.73374 2.35739 1449 ft 172 kts 60°
2026-05-05 16:26 48.74556 2.39018 1825 ft 175 kts 58°
2026-05-05 16:27 48.75136 2.40621 1836 ft 171 kts 59°
2026-05-05 16:27 48.75710 2.42211 1832 ft 171 kts 62°
2026-05-05 16:27 48.75855 2.43961 1884 ft 169 kts 97°
2026-05-05 16:27 48.75728 2.45748 2218 ft 174 kts 90°
2026-05-05 16:28 48.75665 2.47576 3060 ft 175 kts 91°
2026-05-05 16:28 48.75595 2.49461 3699 ft 190 kts 91°
2026-05-05 16:28 48.75511 2.51607 3942 ft 215 kts 92°
2026-05-05 16:28 48.75415 2.53961 4196 ft 236 kts 92°
2026-05-05 16:29 48.75105 2.56475 4540 ft 257 kts 115°
2026-05-05 16:29 48.73892 2.58523 5076 ft 272 kts 147°
2026-05-05 16:29 48.72146 2.59628 6010 ft 273 kts 163°
2026-05-05 16:29 48.70291 2.60360 6855 ft 278 kts 165°
2026-05-05 16:30 48.68396 2.61074 7676 ft 282 kts 165°
2026-05-05 16:30 48.66485 2.61797 8532 ft 285 kts 169°
2026-05-05 16:30 48.64496 2.61712 9319 ft 291 kts 196°
2026-05-05 16:30 48.62725 2.60243 10128 ft 295 kts 222°
2026-05-05 16:31 48.61288 2.57916 10445 ft 315 kts 230°
2026-05-05 16:31 48.59860 2.55257 10660 ft 337 kts 231°
2026-05-05 16:31 48.58353 2.52399 10863 ft 357 kts 231°
2026-05-05 16:31 48.56770 2.49439 11413 ft 366 kts 231°
2026-05-05 16:32 48.55136 2.46442 12150 ft 371 kts 230°
2026-05-05 16:32 48.53489 2.43452 13172 ft 371 kts 230°
2026-05-05 16:32 48.51820 2.40435 13856 ft 378 kts 230°
2026-05-05 16:32 48.50131 2.37385 14579 ft 380 kts 229°
2026-05-05 16:33 48.48425 2.34309 15321 ft 384 kts 230°
2026-05-05 16:33 48.46710 2.31216 16105 ft 386 kts 229°
2026-05-05 16:33 48.44982 2.28103 16900 ft 389 kts 230°
2026-05-05 16:33 48.43237 2.24965 17648 ft 392 kts 230°
2026-05-05 16:34 48.41484 2.21815 18321 ft 393 kts 229°
2026-05-05 16:34 48.39721 2.18649 18818 ft 397 kts 230°
2026-05-05 16:34 48.37940 2.15452 19334 ft 400 kts 230°
2026-05-05 16:34 48.36147 2.12239 19864 ft 402 kts 230°
2026-05-05 16:35 48.34346 2.09015 20395 ft 404 kts 229°
2026-05-05 16:35 48.32526 2.05763 20868 ft 408 kts 229°
2026-05-05 16:35 48.30481 2.02806 21287 ft 411 kts 213°
2026-05-05 16:35 48.27900 2.00964 21810 ft 413 kts 197°
2026-05-05 16:36 48.25067 2.00322 22301 ft 415 kts 180°
2026-05-05 16:36 48.22172 2.00407 22797 ft 418 kts 178°
2026-05-05 16:36 48.19257 2.00574 23281 ft 421 kts 178°
2026-05-05 16:36 48.16325 2.00733 23852 ft 422 kts 179°
2026-05-05 16:37 48.13383 2.00854 24222 ft 425 kts 179°
2026-05-05 16:37 48.10414 2.00947 24553 ft 428 kts 179°
2026-05-05 16:37 48.07430 2.01036 24949 ft 430 kts 179°
2026-05-05 16:37 48.04436 2.01178 25380 ft 431 kts 178°
2026-05-05 16:38 48.01477 2.01354 25747 ft 432 kts 178°
2026-05-05 16:38 47.98460 2.01543 26064 ft 435 kts 178°
2026-05-05 16:38 47.95424 2.01733 26381 ft 438 kts 178°
2026-05-05 16:38 47.92381 2.01919 26736 ft 439 kts 178°
2026-05-05 16:39 47.89322 2.02101 27087 ft 441 kts 178°
2026-05-05 16:39 47.86253 2.02280 27420 ft 442 kts 178°
2026-05-05 16:39 47.83171 2.02458 27738 ft 444 kts 178°
2026-05-05 16:39 47.80076 2.02636 28093 ft 446 kts 178°
2026-05-05 16:40 47.76972 2.02815 28414 ft 447 kts 178°
2026-05-05 16:40 47.73855 2.02994 28707 ft 449 kts 178°
2026-05-05 16:40 47.70733 2.03173 29125 ft 448 kts 178°
2026-05-05 16:40 47.67632 2.03352 29656 ft 444 kts 178°
2026-05-05 16:41 47.64553 2.03528 30113 ft 442 kts 178°
2026-05-05 16:41 47.61490 2.03705 30484 ft 440 kts 178°
2026-05-05 16:41 47.58438 2.03883 30906 ft 438 kts 179°
2026-05-05 16:41 47.55401 2.04060 31375 ft 435 kts 179°
2026-05-05 16:42 47.52391 2.04237 31788 ft 432 kts 179°
2026-05-05 16:42 47.49387 2.04412 32133 ft 431 kts 179°
2026-05-05 16:42 47.46394 2.04586 32459 ft 430 kts 179°
2026-05-05 16:42 47.43412 2.04760 32847 ft 428 kts 179°
2026-05-05 16:43 47.40447 2.04932 33265 ft 425 kts 179°
2026-05-05 16:43 47.37500 2.05103 33630 ft 423 kts 179°
2026-05-05 16:43 47.34561 2.05213 33930 ft 422 kts 183°
2026-05-05 16:43 47.31647 2.04807 34138 ft 421 kts 191°
2026-05-05 16:44 47.28762 2.04064 34333 ft 421 kts 191°
2026-05-05 16:44 47.25876 2.03297 34525 ft 422 kts 191°
2026-05-05 16:44 47.22985 2.02530 34740 ft 422 kts 191°
2026-05-05 16:44 47.20097 2.01774 34988 ft 421 kts 191°
2026-05-05 16:45 47.17209 2.01028 35192 ft 422 kts 191°
2026-05-05 16:45 47.14316 2.00290 35357 ft 423 kts 191°
2026-05-05 16:45 47.11417 1.99554 35530 ft 423 kts 191°
2026-05-05 16:45 47.08516 1.98822 35739 ft 423 kts 191°
2026-05-05 16:46 47.05612 1.98091 35924 ft 423 kts 191°
2026-05-05 16:46 47.02708 1.97361 36070 ft 424 kts 191°
2026-05-05 16:46 46.99791 1.96628 36219 ft 426 kts 191°
2026-05-05 16:46 46.96874 1.95897 36407 ft 425 kts 191°
2026-05-05 16:47 46.93959 1.95166 36602 ft 425 kts 191°
2026-05-05 16:47 46.91040 1.94435 36734 ft 426 kts 191°
2026-05-05 16:47 46.85189 1.92972 36850 ft 426 kts 191°
2026-05-05 16:48 46.79342 1.91513 36867 ft 426 kts 191°
2026-05-05 16:48 46.73491 1.90057 36856 ft 427 kts 191°
2026-05-05 16:49 46.67634 1.88602 36859 ft 427 kts 191°
2026-05-05 16:49 46.61785 1.87152 36860 ft 426 kts 191°
2026-05-05 16:50 46.55936 1.85705 36865 ft 426 kts 191°
2026-05-05 16:50 46.50095 1.84264 36874 ft 426 kts 191°
2026-05-05 16:51 46.44291 1.82835 36871 ft 426 kts 191°
2026-05-05 16:51 46.38453 1.81400 36876 ft 426 kts 191°
2026-05-05 16:52 46.32612 1.79967 36877 ft 426 kts 191°
2026-05-05 16:52 46.26872 1.77818 36888 ft 423 kts 204°
2026-05-05 16:53 46.21852 1.73536 36875 ft 423 kts 219°
2026-05-05 16:53 46.17404 1.67968 36886 ft 423 kts 220°
2026-05-05 16:54 46.12977 1.62369 36888 ft 423 kts 220°
2026-05-05 16:54 46.08527 1.56823 36894 ft 423 kts 220°
2026-05-05 16:55 46.04065 1.51303 36905 ft 423 kts 220°
2026-05-05 16:55 45.99607 1.45799 36907 ft 422 kts 219°
2026-05-05 16:56 45.95367 1.39966 36915 ft 423 kts 229°
2026-05-05 16:56 45.92253 1.32787 36930 ft 426 kts 240°
2026-05-05 16:57 45.89616 1.25175 36916 ft 425 kts 240°
2026-05-05 16:57 45.86954 1.17602 36915 ft 425 kts 240°
2026-05-05 16:58 45.84269 1.10063 36915 ft 424 kts 240°
2026-05-05 16:58 45.81249 1.02860 36918 ft 419 kts 229°
2026-05-05 16:59 45.77856 0.97962 36921 ft 416 kts 219°
2026-05-05 16:59 45.73389 0.92679 36919 ft 416 kts 218°
2026-05-05 17:00 45.68201 0.86554 36917 ft 416 kts 218°
2026-05-05 17:00 45.64469 0.82121 36927 ft 416 kts 219°
2026-05-05 17:01 45.60017 0.76825 36921 ft 417 kts 219°
2026-05-05 17:01 45.55558 0.71528 36928 ft 417 kts 219°
2026-05-05 17:02 45.51093 0.66235 36921 ft 418 kts 219°
2026-05-05 17:02 45.46620 0.60944 36925 ft 418 kts 218°
2026-05-05 17:03 45.42141 0.55658 36923 ft 418 kts 218°
2026-05-05 17:03 45.37653 0.50372 36927 ft 419 kts 218°
2026-05-05 17:04 45.33178 0.45113 36926 ft 421 kts 218°
2026-05-05 17:04 45.28662 0.39817 36930 ft 421 kts 218°
2026-05-05 17:05 45.24136 0.34520 36924 ft 422 kts 218°
2026-05-05 17:05 45.19606 0.29231 36928 ft 422 kts 218°
2026-05-05 17:06 45.15065 0.23937 36924 ft 423 kts 218°
2026-05-05 17:06 45.10522 0.18653 36936 ft 423 kts 218°
2026-05-05 17:07 45.05978 0.13379 36927 ft 423 kts 218°
2026-05-05 17:07 45.01428 0.08112 36931 ft 423 kts 218°
2026-05-05 17:08 44.96879 0.02859 36929 ft 422 kts 218°
2026-05-05 17:08 44.92335 -0.02381 36933 ft 422 kts 218°
2026-05-05 17:09 44.87789 -0.07614 36931 ft 422 kts 218°
2026-05-05 17:09 44.83247 -0.12830 36935 ft 422 kts 218°
2026-05-05 17:10 44.78696 -0.18047 36939 ft 422 kts 218°
2026-05-05 17:10 44.74143 -0.23256 36935 ft 422 kts 218°
2026-05-05 17:11 44.69582 -0.28465 36941 ft 423 kts 218°
2026-05-05 17:11 44.65003 -0.33672 36943 ft 424 kts 217°
2026-05-05 17:12 44.60204 -0.38476 36948 ft 424 kts 214°
2026-05-05 17:12 44.55305 -0.43109 36945 ft 425 kts 213°
2026-05-05 17:13 44.50409 -0.47768 36941 ft 426 kts 214°
2026-05-05 17:13 44.45510 -0.52465 36950 ft 427 kts 214°
2026-05-05 17:14 44.40600 -0.57172 36948 ft 428 kts 214°
2026-05-05 17:14 44.35731 -0.61831 36951 ft 429 kts 214°
2026-05-05 17:15 44.30802 -0.66538 36951 ft 429 kts 214°
2026-05-05 17:15 44.25858 -0.71223 36957 ft 430 kts 214°
2026-05-05 17:16 44.20824 -0.75857 36957 ft 431 kts 213°
2026-05-05 17:16 44.15815 -0.80437 36966 ft 431 kts 213°
2026-05-05 17:17 44.10835 -0.84994 36963 ft 431 kts 213°
2026-05-05 17:17 44.05819 -0.89583 36964 ft 432 kts 214°
2026-05-05 17:18 44.00800 -0.94169 36968 ft 432 kts 214°
2026-05-05 17:18 43.95779 -0.98747 36968 ft 432 kts 214°
2026-05-05 17:19 43.90755 -1.03319 36969 ft 432 kts 214°
2026-05-05 17:19 43.85734 -1.07878 36968 ft 432 kts 214°
2026-05-05 17:20 43.80707 -1.12433 36969 ft 432 kts 214°
2026-05-05 17:20 43.76589 -1.16158 36968 ft 431 kts 214°
2026-05-05 17:21 43.71565 -1.20694 36969 ft 431 kts 214°
2026-05-05 17:22 43.64027 -1.27482 36969 ft 431 kts 214°
2026-05-05 17:22 43.59001 -1.31997 36993 ft 431 kts 214°
2026-05-05 17:23 43.53977 -1.36501 36990 ft 431 kts 214°
2026-05-05 17:23 43.48948 -1.41001 36997 ft 431 kts 214°
2026-05-05 17:24 43.43921 -1.45490 36998 ft 431 kts 214°
2026-05-05 17:24 43.38929 -1.49938 36994 ft 431 kts 214°
2026-05-05 17:25 43.33899 -1.54414 36994 ft 431 kts 214°
2026-05-05 17:25 43.28863 -1.58857 37015 ft 431 kts 211°
2026-05-05 17:26 43.23293 -1.61931 37016 ft 435 kts 196°
2026-05-05 17:26 43.17271 -1.63132 37006 ft 439 kts 189°
2026-05-05 17:27 43.11205 -1.64048 36997 ft 439 kts 189°
2026-05-05 17:27 43.05144 -1.65004 36989 ft 438 kts 190°
2026-05-05 17:28 42.99082 -1.65996 37066 ft 441 kts 190°
2026-05-05 17:28 42.92926 -1.67011 36996 ft 449 kts 190°
2026-05-05 17:29 42.86699 -1.68031 36987 ft 452 kts 190°
2026-05-05 17:29 42.80437 -1.69053 36993 ft 454 kts 191°
2026-05-05 17:30 42.74200 -1.70281 36988 ft 450 kts 198°
2026-05-05 17:30 42.68460 -1.73367 37006 ft 442 kts 210°
2026-05-05 17:31 42.62979 -1.77149 36979 ft 441 kts 210°
2026-05-05 17:31 42.57530 -1.80854 36977 ft 440 kts 210°
2026-05-05 17:32 42.52053 -1.84524 36955 ft 438 kts 210°
2026-05-05 17:32 42.46594 -1.88168 36950 ft 437 kts 210°
2026-05-05 17:33 42.41147 -1.91799 36965 ft 436 kts 210°
2026-05-05 17:33 42.35717 -1.95421 36970 ft 435 kts 210°
2026-05-05 17:34 42.30295 -1.99034 36967 ft 434 kts 210°
2026-05-05 17:34 42.24879 -2.02640 36970 ft 434 kts 210°
2026-05-05 17:35 42.19461 -2.06234 36970 ft 434 kts 210°
2026-05-05 17:35 42.14036 -2.09824 36975 ft 435 kts 210°
2026-05-05 17:36 42.08590 -2.13419 36962 ft 436 kts 210°
2026-05-05 17:36 42.03135 -2.17014 36960 ft 437 kts 210°
2026-05-05 17:37 41.97672 -2.20608 36963 ft 438 kts 210°
2026-05-05 17:37 41.92197 -2.24204 36953 ft 438 kts 210°
2026-05-05 17:38 41.86723 -2.27792 36967 ft 438 kts 210°
2026-05-05 17:38 41.81244 -2.31377 36957 ft 438 kts 210°
2026-05-05 17:39 41.75763 -2.34956 36956 ft 438 kts 210°
2026-05-05 17:39 41.70291 -2.38522 36953 ft 437 kts 210°
2026-05-05 17:40 41.64822 -2.42080 36943 ft 436 kts 210°
2026-05-05 17:40 41.59367 -2.45623 36949 ft 435 kts 210°
2026-05-05 17:41 41.53927 -2.49151 36951 ft 434 kts 210°
2026-05-05 17:41 41.48492 -2.52664 36947 ft 434 kts 210°
2026-05-05 17:42 41.43059 -2.56158 36949 ft 433 kts 210°
2026-05-05 17:42 41.37638 -2.59640 36949 ft 432 kts 211°
2026-05-05 17:43 41.33139 -2.62533 36947 ft 431 kts 212°
2026-05-05 17:43 41.28146 -2.66790 36956 ft 425 kts 219°
2026-05-05 17:44 41.22516 -2.72041 36959 ft 425 kts 219°
2026-05-05 17:44 41.17663 -2.76535 36951 ft 426 kts 219°
2026-05-05 17:45 41.13580 -2.80289 36957 ft 426 kts 219°
2026-05-05 17:45 41.08736 -2.84724 36945 ft 426 kts 219°
2026-05-05 17:46 41.03820 -2.89213 36951 ft 426 kts 219°
2026-05-05 17:46 40.98936 -2.93666 36943 ft 426 kts 219°
2026-05-05 17:47 40.94050 -2.98112 36944 ft 426 kts 219°
2026-05-05 17:47 40.89173 -3.02541 36943 ft 425 kts 220°
2026-05-05 17:48 40.84291 -3.06968 36926 ft 425 kts 220°
2026-05-05 17:48 40.79414 -3.11383 36945 ft 425 kts 220°
2026-05-05 17:49 40.74539 -3.15787 36920 ft 424 kts 220°
2026-05-05 17:49 40.69913 -3.19959 36934 ft 424 kts 220°
2026-05-05 17:50 40.65049 -3.24338 36931 ft 423 kts 220°
2026-05-05 17:50 40.60192 -3.28704 36929 ft 422 kts 220°
2026-05-05 17:51 40.55976 -3.32486 36928 ft 422 kts 220°
2026-05-05 17:51 40.51132 -3.36826 36932 ft 421 kts 220°
2026-05-05 17:52 40.46295 -3.41150 36933 ft 420 kts 220°
2026-05-05 17:52 40.41460 -3.45466 36939 ft 420 kts 220°
2026-05-05 17:53 40.36665 -3.49740 36937 ft 420 kts 220°
2026-05-05 17:53 40.31833 -3.54037 36957 ft 419 kts 220°
2026-05-05 17:54 40.27005 -3.58324 36962 ft 419 kts 220°
2026-05-05 17:54 40.22180 -3.62602 36962 ft 419 kts 220°
2026-05-05 17:55 40.17354 -3.66874 36960 ft 419 kts 220°
2026-05-05 17:55 40.12531 -3.71135 36958 ft 418 kts 220°
2026-05-05 17:56 40.07708 -3.75385 36942 ft 418 kts 220°
2026-05-05 17:56 40.02887 -3.79623 36955 ft 417 kts 220°
2026-05-05 17:57 39.98070 -3.83852 36943 ft 418 kts 220°
2026-05-05 17:57 39.93252 -3.88077 36927 ft 417 kts 220°
2026-05-05 17:58 39.88436 -3.92292 36936 ft 417 kts 220°
2026-05-05 17:58 39.83625 -3.96497 36938 ft 416 kts 219°
2026-05-05 17:59 39.78816 -4.00694 36941 ft 416 kts 219°
2026-05-05 17:59 39.74005 -4.04884 36945 ft 416 kts 219°
2026-05-05 18:00 39.69199 -4.09068 36935 ft 416 kts 220°
2026-05-05 18:00 39.64394 -4.13251 36941 ft 415 kts 220°
2026-05-05 18:01 39.59595 -4.17423 36943 ft 415 kts 220°
2026-05-05 18:01 39.54796 -4.21588 36938 ft 415 kts 220°
2026-05-05 18:02 39.49997 -4.25746 36948 ft 415 kts 219°
2026-05-05 18:02 39.45199 -4.29898 36940 ft 415 kts 219°
2026-05-05 18:03 39.40401 -4.34040 36946 ft 414 kts 219°
2026-05-05 18:03 39.35611 -4.38170 36947 ft 414 kts 219°
2026-05-05 18:04 39.30823 -4.42291 36941 ft 414 kts 219°
2026-05-05 18:04 39.26068 -4.46379 36949 ft 413 kts 219°
2026-05-05 18:05 39.21244 -4.50516 36953 ft 414 kts 219°
2026-05-05 18:05 39.16443 -4.54612 36943 ft 414 kts 219°
2026-05-05 18:06 39.11636 -4.58707 36951 ft 414 kts 219°
2026-05-05 18:06 39.06857 -4.62773 36944 ft 415 kts 219°
2026-05-05 18:07 39.02047 -4.66861 36950 ft 415 kts 219°
2026-05-05 18:07 38.97231 -4.70943 36945 ft 414 kts 219°
2026-05-05 18:08 38.92421 -4.75015 36935 ft 414 kts 219°
2026-05-05 18:08 38.87606 -4.79087 36957 ft 414 kts 219°
2026-05-05 18:09 38.82784 -4.83158 36954 ft 415 kts 219°
2026-05-05 18:09 38.77965 -4.87220 36964 ft 415 kts 219°
2026-05-05 18:10 38.73137 -4.91283 36957 ft 415 kts 219°
2026-05-05 18:10 38.68316 -4.95334 36955 ft 415 kts 219°
2026-05-05 18:11 38.63491 -4.99382 36955 ft 415 kts 219°
2026-05-05 18:11 38.58666 -5.03423 36957 ft 414 kts 219°
2026-05-05 18:12 38.53847 -5.07453 36961 ft 414 kts 219°
2026-05-05 18:12 38.48903 -5.11264 36955 ft 418 kts 212°
2026-05-05 18:13 38.43660 -5.14500 36953 ft 419 kts 212°
2026-05-05 18:13 38.38417 -5.17714 36956 ft 418 kts 212°
2026-05-05 18:14 38.33182 -5.20943 36962 ft 418 kts 212°
2026-05-05 18:14 38.27953 -5.24178 36962 ft 417 kts 212°
2026-05-05 18:15 38.22730 -5.27408 36959 ft 417 kts 212°
2026-05-05 18:15 38.17507 -5.30632 36959 ft 417 kts 212°
2026-05-05 18:16 38.12284 -5.33852 36959 ft 417 kts 212°
2026-05-05 18:16 38.07054 -5.37071 36959 ft 418 kts 212°
2026-05-05 18:17 38.01818 -5.40287 36958 ft 418 kts 212°
2026-05-05 18:17 37.96576 -5.43503 36959 ft 419 kts 211°
2026-05-05 18:18 37.91322 -5.46721 36953 ft 420 kts 211°
2026-05-05 18:18 37.86061 -5.49938 36957 ft 420 kts 211°
2026-05-05 18:19 37.80785 -5.53159 36952 ft 422 kts 211°
2026-05-05 18:19 37.75498 -5.56381 36953 ft 422 kts 211°
2026-05-05 18:20 37.70205 -5.59601 36958 ft 422 kts 211°
2026-05-05 18:20 37.64906 -5.62821 36946 ft 423 kts 211°
2026-05-05 18:21 37.59621 -5.66027 36945 ft 423 kts 211°
2026-05-05 18:21 37.54322 -5.69237 36945 ft 422 kts 211°
2026-05-05 18:22 37.49021 -5.72443 36933 ft 422 kts 211°
2026-05-05 18:22 37.43689 -5.75551 36938 ft 425 kts 206°
2026-05-05 18:23 37.37867 -5.77230 36948 ft 434 kts 194°
2026-05-05 18:23 37.31922 -5.78255 36944 ft 434 kts 194°
2026-05-05 18:24 37.25948 -5.79289 36960 ft 433 kts 194°
2026-05-05 18:24 37.19987 -5.80354 36964 ft 432 kts 194°
2026-05-05 18:25 37.15012 -5.81255 36960 ft 432 kts 194°
2026-05-05 18:25 37.09027 -5.82345 36367 ft 437 kts 194°
2026-05-05 18:25 37.06027 -5.82889 35789 ft 435 kts 194°
2026-05-05 18:26 37.03033 -5.83430 35162 ft 435 kts 194°
2026-05-05 18:26 37.00039 -5.83971 34523 ft 435 kts 194°
2026-05-05 18:26 36.97037 -5.84514 33853 ft 436 kts 193°
2026-05-05 18:26 36.94033 -5.85056 33107 ft 437 kts 193°
2026-05-05 18:27 36.91035 -5.85596 32628 ft 432 kts 193°
2026-05-05 18:27 36.88074 -5.86127 32084 ft 428 kts 193°
2026-05-05 18:27 36.85136 -5.86655 31606 ft 424 kts 193°
2026-05-05 18:27 36.82229 -5.87176 31131 ft 420 kts 194°
2026-05-05 18:28 36.77448 -5.88036 30357 ft 415 kts 194°
2026-05-05 18:28 36.74603 -5.88547 29867 ft 412 kts 194°
2026-05-05 18:28 36.71780 -5.89054 29342 ft 408 kts 194°
2026-05-05 18:29 36.68984 -5.89556 28861 ft 404 kts 194°
2026-05-05 18:29 36.66220 -5.90051 28385 ft 400 kts 193°
2026-05-05 18:29 36.63474 -5.90543 27915 ft 396 kts 193°
2026-05-05 18:29 36.60754 -5.91030 27438 ft 393 kts 193°
2026-05-05 18:30 36.58057 -5.91513 26976 ft 391 kts 193°
2026-05-05 18:30 36.55375 -5.91993 26517 ft 388 kts 193°
2026-05-05 18:30 36.52710 -5.92470 26060 ft 386 kts 193°
2026-05-05 18:30 36.50063 -5.92943 25606 ft 383 kts 193°
2026-05-05 18:31 36.47429 -5.93413 25170 ft 382 kts 193°
2026-05-05 18:31 36.44808 -5.93881 24729 ft 380 kts 193°
2026-05-05 18:31 36.42191 -5.94348 24269 ft 379 kts 192°
2026-05-05 18:31 36.39579 -5.94814 23808 ft 379 kts 192°
2026-05-05 18:32 36.36973 -5.95278 23297 ft 378 kts 192°
2026-05-05 18:32 36.34372 -5.95740 22813 ft 376 kts 192°
2026-05-05 18:32 36.31790 -5.96199 22345 ft 374 kts 192°
2026-05-05 18:32 36.29235 -5.96652 21895 ft 371 kts 192°
2026-05-05 18:33 36.26673 -5.97107 21447 ft 369 kts 192°
2026-05-05 18:33 36.24135 -5.97528 21006 ft 368 kts 189°
2026-05-05 18:33 36.21572 -5.97557 20641 ft 368 kts 181°
2026-05-05 18:33 36.19022 -5.97404 20206 ft 366 kts 181°
2026-05-05 18:34 36.16485 -5.97241 19785 ft 364 kts 181°
2026-05-05 18:34 36.13956 -5.97083 19365 ft 363 kts 181°
2026-05-05 18:34 36.11661 -5.96946 18986 ft 361 kts 181°
2026-05-05 18:34 36.09104 -5.96800 18554 ft 360 kts 181°
2026-05-05 18:35 36.06606 -5.96661 18087 ft 359 kts 180°
2026-05-05 18:35 36.04111 -5.96524 17622 ft 358 kts 181°
2026-05-05 18:35 36.01633 -5.96390 17183 ft 355 kts 180°
2026-05-05 18:35 35.99171 -5.96256 16765 ft 353 kts 180°
2026-05-05 18:36 35.96743 -5.96124 16515 ft 349 kts 180°
2026-05-05 18:36 35.94306 -5.95993 16263 ft 350 kts 180°
2026-05-05 18:36 35.91860 -5.95862 16017 ft 354 kts 180°
2026-05-05 18:36 35.89396 -5.95730 15764 ft 355 kts 180°
2026-05-05 18:37 35.86940 -5.95597 15510 ft 352 kts 181°
2026-05-05 18:37 35.84538 -5.95894 15238 ft 344 kts 200°
2026-05-05 18:37 35.82437 -5.97202 15014 ft 336 kts 219°
2026-05-05 18:37 35.80801 -5.99211 14778 ft 331 kts 233°
2026-05-05 18:38 35.79400 -6.01451 14543 ft 330 kts 234°
2026-05-05 18:38 35.78021 -6.03710 14304 ft 329 kts 233°
2026-05-05 18:38 35.76332 -6.05601 14041 ft 333 kts 211°
2026-05-05 18:38 35.74156 -6.06578 13814 ft 337 kts 193°
2026-05-05 18:39 35.71835 -6.06969 13589 ft 337 kts 189°
2026-05-05 18:39 35.69505 -6.07298 13326 ft 337 kts 190°
2026-05-05 18:39 35.67304 -6.08159 13026 ft 331 kts 213°
2026-05-05 18:39 35.65621 -6.10034 12789 ft 326 kts 234°
2026-05-05 18:40 35.64545 -6.12453 12438 ft 322 kts 250°
2026-05-05 18:40 35.63953 -6.15085 12038 ft 319 kts 265°
2026-05-05 18:40 35.64327 -6.17726 11693 ft 317 kts 295°
2026-05-05 18:40 35.65750 -6.19752 11413 ft 317 kts 325°
2026-05-05 18:41 35.67772 -6.20799 11149 ft 315 kts 338°
2026-05-05 18:41 35.69825 -6.21644 10960 ft 309 kts 345°
2026-05-05 18:41 35.71900 -6.21507 11148 ft 292 kts 15°
2026-05-05 18:41 35.73609 -6.20282 11013 ft 282 kts 45°
2026-05-05 18:42 35.74586 -6.18291 10922 ft 266 kts 70°
2026-05-05 18:42 35.75000 -6.16143 10807 ft 251 kts 81°
2026-05-05 18:42 35.75120 -6.14061 10254 ft 246 kts 90°
2026-05-05 18:42 35.74996 -6.11741 8064 ft 287 kts 96°
2026-05-05 18:43 35.74683 -6.09091 6233 ft 318 kts 98°
2026-05-05 18:43 35.74319 -6.06445 4464 ft 311 kts 98°
2026-05-05 18:43 35.73901 -6.03754 2633 ft 320 kts 101°
2026-05-05 18:43 35.73421 -6.01223 2414 ft 278 kts 104°
2026-05-05 18:44 35.72912 -5.99092 2267 ft 246 kts 107°
2026-05-05 18:44 35.72399 -5.97178 1976 ft 225 kts 106°
2026-05-05 18:44 35.72004 -5.95412 1837 ft 199 kts 104°
2026-05-05 18:44 35.71646 -5.93893 1696 ft 176 kts 105°
2026-05-05 18:45 35.71351 -5.92485 1408 ft 157 kts 100°
2026-05-05 18:45 35.71154 -5.91263 1362 ft 147 kts 99°
2026-05-05 18:45 35.70978 -5.89963 1463 ft 157 kts 97°
2026-05-05 18:45 35.70853 -5.88588 1484 ft 167 kts 95°
2026-05-05 18:46 35.71117 -5.87264 1650 ft 166 kts 47°
2026-05-05 18:46 35.72167 -5.86849 1007 ft 177 kts 338°
2026-05-05 18:46 35.72848 -5.87940 822 ft 168 kts 275°
2026-05-05 18:46 35.72914 -5.89438 313 ft 177 kts 278°
2026-05-05 18:47 35.73051 -5.90863 66 ft 154 kts 277°
2026-05-05 18:47 35.73149 -5.91895 59 ft 77 kts 276°
2026-05-05 18:47 35.73183 -5.92326 59 ft 26 kts 276°
2026-05-05 18:47 35.73199 -5.92500 59 ft 18 kts 274°
2026-05-05 18:48 35.73131 -5.92617 59 ft 18 kts 197°
2026-05-05 18:48 35.73027 -5.92558 59 ft 17 kts 118°
2026-05-05 18:48 35.73010 -5.92415 56 ft 18 kts 96°
2026-05-05 18:48 35.72992 -5.92205 59 ft 29 kts 96°
2026-05-05 18:49 35.72968 -5.91962 57 ft 28 kts 96°
2026-05-05 18:49 35.72932 -5.91742 53 ft 24 kts 137°
2026-05-05 18:49 35.72776 -5.91712 59 ft 23 kts 176°
2026-05-05 18:49 35.72602 -5.91695 59 ft 28 kts 176°
2026-05-05 18:50 35.72451 -5.91636 59 ft 26 kts 129°
2026-05-05 18:50 35.72435 -5.91470 59 ft 12 kts 55°
2026-05-05 18:50 35.72520 -5.91447 56 ft 0 kts 353°